Time,TemperatureF,DewpointF,PressureIn,WindDirection,WindDirectionDegrees,WindSpeedMPH,WindSpeedGustMPH,Humidity,HourlyPrecipIn,Conditions,Clouds,dailyrainin,SoftwareType,DateUTC
2013-11-15 00:04:00,29.6,23.0,30.15,SW,236,0.0,0.0,76,0.00,,,0.00,weatherlink.com 1.10,2013-11-15 05:04:00,
2013-11-15 00:19:00,29.3,23.0,30.16,SW,236,0.0,0.0,76,0.00,,,0.00,weatherlink.com 1.10,2013-11-15 05:19:00,
2013-11-15 00:34:00,29.0,23.0,30.15,SW,236,0.0,0.0,78,0.00,,,0.00,weatherlink.com 1.10,2013-11-15 05:34:00,
2013-11-15 00:50:00,28.9,23.0,30.14,SW,236,0.0,0.0,78,0.00,,,0.00,weatherlink.com 1.10,2013-11-15 05:50:00,
2013-11-15 01:05:00,28.5,22.0,30.15,SW,236,0.0,0.0,78,0.00,,,0.00,weatherlink.com 1.10,2013-11-15 06:05:00,
2013-11-15 01:20:00,28.0,22.0,30.15,SW,236,0.0,1.0,79,0.00,,,0.00,weatherlink.com 1.10,2013-11-15 06:20:00,
2013-11-15 01:35:00,27.7,23.0,30.16,SW,236,0.0,0.0,81,0.00,,,0.00,weatherlink.com 1.10,2013-11-15 06:35:00,
2013-11-15 01:50:00,27.6,23.0,30.16,SW,236,0.0,0.0,81,0.00,,,0.00,weatherlink.com 1.10,2013-11-15 06:50:00,
2013-11-15 02:05:00,27.4,22.0,30.17,SW,236,0.0,1.0,80,0.00,,,0.00,weatherlink.com 1.10,2013-11-15 07:05:00,
2013-11-15 02:20:00,27.1,22.0,30.17,SW,236,0.0,0.0,80,0.00,,,0.00,weatherlink.com 1.10,2013-11-15 07:20:00,
2013-11-15 02:35:00,27.0,22.0,30.17,SW,236,0.0,0.0,81,0.00,,,0.00,weatherlink.com 1.10,2013-11-15 07:35:00,
2013-11-15 02:50:00,26.8,22.0,30.15,SW,236,0.0,0.0,81,0.00,,,0.00,weatherlink.com 1.10,2013-11-15 07:50:00,
2013-11-15 03:05:00,26.3,21.0,30.15,SW,236,0.0,0.0,80,0.00,,,0.00,weatherlink.com 1.10,2013-11-15 08:05:00,
2013-11-15 03:20:00,26.1,21.0,30.16,SW,236,0.0,1.0,80,0.00,,,0.00,weatherlink.com 1.10,2013-11-15 08:20:00,
2013-11-15 03:35:00,26.1,21.0,30.16,SW,236,0.0,1.0,82,0.00,,,0.00,weatherlink.com 1.10,2013-11-15 08:35:00,
2013-11-15 03:50:00,26.1,21.0,30.17,WSW,243,0.0,1.0,81,0.00,,,0.00,weatherlink.com 1.10,2013-11-15 08:50:00,
2013-11-15 04:05:00,26.0,21.0,30.16,WSW,243,0.0,0.0,81,0.00,,,0.00,weatherlink.com 1.10,2013-11-15 09:05:00,
2013-11-15 04:20:00,25.9,21.0,30.16,WSW,243,0.0,0.0,81,0.00,,,0.00,weatherlink.com 1.10,2013-11-15 09:20:00,
2013-11-15 04:35:00,25.8,22.0,30.17,WSW,243,0.0,0.0,84,0.00,,,0.00,weatherlink.com 1.10,2013-11-15 09:35:00,
2013-11-15 04:50:00,25.4,21.0,30.17,WSW,243,0.0,0.0,83,0.00,,,0.00,weatherlink.com 1.10,2013-11-15 09:50:00,
2013-11-15 05:05:00,25.1,21.0,30.18,WSW,243,0.0,0.0,83,0.00,,,0.00,weatherlink.com 1.10,2013-11-15 10:05:00,
2013-11-15 05:20:00,25.1,21.0,30.18,WSW,243,0.0,0.0,84,0.00,,,0.00,weatherlink.com 1.10,2013-11-15 10:20:00,
2013-11-15 05:35:00,25.2,21.0,30.18,WSW,243,0.0,0.0,85,0.00,,,0.00,weatherlink.com 1.10,2013-11-15 10:35:00,
2013-11-15 05:50:00,25.2,21.0,30.18,WSW,243,0.0,0.0,84,0.00,,,0.00,weatherlink.com 1.10,2013-11-15 10:50:00,
2013-11-15 06:05:00,24.8,21.0,30.18,WSW,243,0.0,0.0,84,0.00,,,0.00,weatherlink.com 1.10,2013-11-15 11:05:00,
2013-11-15 06:20:00,24.7,21.0,30.19,WSW,243,0.0,0.0,84,0.00,,,0.00,weatherlink.com 1.10,2013-11-15 11:20:00,
2013-11-15 06:35:00,24.5,21.0,30.19,WSW,243,0.0,0.0,85,0.00,,,0.00,weatherlink.com 1.10,2013-11-15 11:35:00,
2013-11-15 06:50:00,24.3,21.0,30.20,WSW,243,0.0,0.0,86,0.00,,,0.00,weatherlink.com 1.10,2013-11-15 11:50:00,
2013-11-15 07:05:00,24.4,21.0,30.20,WSW,246,0.0,0.0,86,0.00,,,0.00,weatherlink.com 1.10,2013-11-15 12:05:00,
2013-11-15 07:20:00,24.7,21.0,30.21,WSW,246,0.0,0.0,86,0.00,,,0.00,weatherlink.com 1.10,2013-11-15 12:20:00,
2013-11-15 07:35:00,25.3,22.0,30.21,WSW,246,0.0,0.0,86,0.00,,,0.00,weatherlink.com 1.10,2013-11-15 12:35:00,
2013-11-15 07:50:00,26.5,22.0,30.21,WSW,238,0.0,0.0,84,0.00,,,0.00,weatherlink.com 1.10,2013-11-15 12:50:00,
2013-11-15 08:05:00,27.3,23.0,30.22,WSW,238,0.0,0.0,83,0.00,,,0.00,weatherlink.com 1.10,2013-11-15 13:05:00,
2013-11-15 08:20:00,28.9,24.0,30.21,WSW,238,0.0,0.0,81,0.00,,,0.00,weatherlink.com 1.10,2013-11-15 13:20:00,
2013-11-15 08:35:00,30.4,25.0,30.21,WSW,238,0.0,0.0,79,0.00,,,0.00,weatherlink.com 1.10,2013-11-15 13:35:00,
2013-11-15 08:50:00,32.4,26.0,30.21,SW,234,0.0,0.0,76,0.00,,,0.00,weatherlink.com 1.10,2013-11-15 13:50:00,
2013-11-15 09:05:00,34.4,27.0,30.22,WSW,237,0.0,0.0,73,0.00,,,0.00,weatherlink.com 1.10,2013-11-15 14:05:00,
2013-11-15 09:20:00,36.1,27.0,30.21,WSW,237,0.0,0.0,70,0.00,,,0.00,weatherlink.com 1.10,2013-11-15 14:20:00,
2013-11-15 09:36:00,38.2,28.0,30.21,WSW,237,0.0,0.0,66,0.00,,,0.00,weatherlink.com 1.10,2013-11-15 14:36:00,
2013-11-15 09:51:00,40.1,29.0,30.21,SW,217,0.0,1.0,66,0.00,,,0.00,weatherlink.com 1.10,2013-11-15 14:51:00,
2013-11-15 10:06:00,41.4,30.0,30.22,ESE,108,0.0,2.0,63,0.00,,,0.00,weatherlink.com 1.10,2013-11-15 15:06:00,
2013-11-15 10:21:00,42.2,29.0,30.22,ESE,116,1.0,3.0,61,0.00,,,0.00,weatherlink.com 1.10,2013-11-15 15:21:00,
2013-11-15 10:36:00,44.0,31.0,30.22,ESE,105,0.0,2.0,60,0.00,,,0.00,weatherlink.com 1.10,2013-11-15 15:36:00,
2013-11-15 10:51:00,46.2,32.0,30.21,East,98,1.0,2.0,58,0.00,,,0.00,weatherlink.com 1.10,2013-11-15 15:51:00,
2013-11-15 11:06:00,47.4,32.0,30.20,ESE,105,0.0,2.0,55,0.00,,,0.00,weatherlink.com 1.10,2013-11-15 16:06:00,
2013-11-15 11:21:00,49.4,33.0,30.20,East,101,0.0,2.0,54,0.00,,,0.00,weatherlink.com 1.10,2013-11-15 16:21:00,
2013-11-15 11:36:00,51.1,32.0,30.18,East,98,0.0,2.0,49,0.00,,,0.00,weatherlink.com 1.10,2013-11-15 16:36:00,
2013-11-15 11:51:00,53.0,30.0,30.17,ESE,105,2.0,2.0,42,0.00,,,0.00,weatherlink.com 1.10,2013-11-15 16:51:00,
2013-11-15 12:06:00,55.6,30.0,30.17,ESE,105,0.0,2.0,38,0.00,,,0.00,weatherlink.com 1.10,2013-11-15 17:06:00,
2013-11-15 12:22:00,55.8,29.0,30.16,East,85,1.0,4.0,36,0.00,,,0.00,weatherlink.com 1.10,2013-11-15 17:22:00,
2013-11-15 12:36:00,57.1,30.0,30.16,SSW,198,0.0,2.0,36,0.00,,,0.00,weatherlink.com 1.10,2013-11-15 17:36:00,
2013-11-15 12:51:00,60.3,29.0,30.14,NW,305,0.0,3.0,30,0.00,,,0.00,weatherlink.com 1.10,2013-11-15 17:51:00,
2013-11-15 13:07:00,60.3,24.0,30.13,East,94,1.0,2.0,25,0.00,,,0.00,weatherlink.com 1.10,2013-11-15 18:07:00,
2013-11-15 13:22:00,60.7,26.0,30.13,NW,326,0.0,3.0,27,0.00,,,0.00,weatherlink.com 1.10,2013-11-15 18:22:00,
2013-11-15 13:37:00,61.2,25.0,30.13,ESE,107,1.0,5.0,25,0.00,,,0.00,weatherlink.com 1.10,2013-11-15 18:37:00,
2013-11-15 13:52:00,61.0,23.0,30.13,East,86,1.0,2.0,23,0.00,,,0.00,weatherlink.com 1.10,2013-11-15 18:52:00,
2013-11-15 14:07:00,60.1,25.0,30.12,NW,317,0.0,3.0,26,0.00,,,0.00,weatherlink.com 1.10,2013-11-15 19:07:00,
2013-11-15 14:37:00,58.6,24.0,30.12,ESE,104,0.0,3.0,26,0.00,,,0.00,weatherlink.com 1.10,2013-11-15 19:37:00,
2013-11-15 14:52:00,58.4,26.0,30.11,ESE,102,3.0,3.0,29,0.00,,,0.00,weatherlink.com 1.10,2013-11-15 19:52:00,
2013-11-15 15:07:00,58.2,26.0,30.11,East,88,0.0,3.0,29,0.00,,,0.00,weatherlink.com 1.10,2013-11-15 20:07:00,
2013-11-15 15:22:00,57.7,24.0,30.11,SE,136,0.0,1.0,27,0.00,,,0.00,weatherlink.com 1.10,2013-11-15 20:22:00,
2013-11-15 15:37:00,57.3,22.0,30.11,SSE,149,0.0,1.0,25,0.00,,,0.00,weatherlink.com 1.10,2013-11-15 20:37:00,
2013-11-15 15:52:00,57.0,21.0,30.11,SSE,149,0.0,0.0,25,0.00,,,0.00,weatherlink.com 1.10,2013-11-15 20:52:00,
2013-11-15 16:07:00,56.6,21.0,30.11,SSE,149,0.0,0.0,25,0.00,,,0.00,weatherlink.com 1.10,2013-11-15 21:07:00,
2013-11-15 16:22:00,55.8,22.0,30.11,SSE,149,0.0,1.0,27,0.00,,,0.00,weatherlink.com 1.10,2013-11-15 21:22:00,
2013-11-15 16:37:00,55.0,23.0,30.11,SSE,149,0.0,1.0,29,0.00,,,0.00,weatherlink.com 1.10,2013-11-15 21:37:00,
2013-11-15 16:52:00,54.2,22.0,30.12,SSE,149,0.0,0.0,29,0.00,,,0.00,weatherlink.com 1.10,2013-11-15 21:52:00,
2013-11-15 17:07:00,52.8,26.0,30.12,SSE,150,0.0,0.0,35,0.00,,,0.00,weatherlink.com 1.10,2013-11-15 22:07:00,
2013-11-15 17:22:00,51.5,27.0,30.12,SSE,150,0.0,0.0,39,0.00,,,0.00,weatherlink.com 1.10,2013-11-15 22:22:00,
2013-11-15 17:37:00,49.8,28.0,30.12,SSE,150,0.0,1.0,44,0.00,,,0.00,weatherlink.com 1.10,2013-11-15 22:37:00,
2013-11-15 17:52:00,48.5,28.0,30.12,SSE,152,0.0,1.0,46,0.00,,,0.00,weatherlink.com 1.10,2013-11-15 22:52:00,
2013-11-15 18:07:00,47.5,28.0,30.12,SSE,152,0.0,0.0,48,0.00,,,0.00,weatherlink.com 1.10,2013-11-15 23:07:00,
2013-11-15 18:21:00,46.6,29.0,30.12,SSE,152,0.0,1.0,50,0.00,,,0.00,weatherlink.com 1.10,2013-11-15 23:21:00,
2013-11-15 18:36:00,45.9,29.0,30.12,SSE,152,0.0,0.0,51,0.00,,,0.00,weatherlink.com 1.10,2013-11-15 23:36:00,
2013-11-15 18:51:00,45.6,28.0,30.13,SSE,152,0.0,0.0,50,0.00,,,0.00,weatherlink.com 1.10,2013-11-15 23:51:00,
2013-11-15 19:06:00,45.6,28.0,30.13,SSE,152,0.0,0.0,50,0.00,,,0.00,weatherlink.com 1.10,2013-11-16 00:06:00,
2013-11-15 19:21:00,45.6,29.0,30.13,SSE,152,0.0,0.0,52,0.00,,,0.00,weatherlink.com 1.10,2013-11-16 00:21:00,
2013-11-15 19:36:00,45.7,28.0,30.13,SSE,152,0.0,0.0,50,0.00,,,0.00,weatherlink.com 1.10,2013-11-16 00:36:00,
2013-11-15 19:51:00,46.5,29.0,30.13,SSE,152,0.0,0.0,50,0.00,,,0.00,weatherlink.com 1.10,2013-11-16 00:51:00,
2013-11-15 20:06:00,46.5,30.0,30.14,SSE,152,0.0,0.0,52,0.00,,,0.00,weatherlink.com 1.10,2013-11-16 01:06:00,
2013-11-15 20:21:00,46.2,30.0,30.13,SSE,152,0.0,0.0,54,0.00,,,0.00,weatherlink.com 1.10,2013-11-16 01:21:00,
2013-11-15 20:36:00,46.0,30.0,30.13,SSE,152,0.0,0.0,55,0.00,,,0.00,weatherlink.com 1.10,2013-11-16 01:36:00,
2013-11-15 20:51:00,45.8,29.0,30.13,SSE,152,0.0,1.0,53,0.00,,,0.00,weatherlink.com 1.10,2013-11-16 01:51:00,
2013-11-15 21:06:00,45.9,31.0,30.14,SSE,152,0.0,0.0,57,0.00,,,0.00,weatherlink.com 1.10,2013-11-16 02:06:00,
2013-11-15 21:21:00,45.7,31.0,30.15,SSE,152,0.0,0.0,57,0.00,,,0.00,weatherlink.com 1.10,2013-11-16 02:21:00,
2013-11-15 21:36:00,45.6,30.0,30.15,SSE,152,0.0,0.0,54,0.00,,,0.00,weatherlink.com 1.10,2013-11-16 02:36:00,
2013-11-15 21:51:00,45.6,31.0,30.15,SSE,152,0.0,0.0,56,0.00,,,0.00,weatherlink.com 1.10,2013-11-16 02:51:00,
2013-11-15 22:06:00,45.6,30.0,30.16,South,169,0.0,1.0,55,0.00,,,0.00,weatherlink.com 1.10,2013-11-16 03:06:00,
2013-11-15 22:21:00,45.7,31.0,30.16,South,169,0.0,0.0,56,0.00,,,0.00,weatherlink.com 1.10,2013-11-16 03:21:00,
2013-11-15 22:36:00,45.6,31.0,30.17,South,169,0.0,0.0,58,0.00,,,0.00,weatherlink.com 1.10,2013-11-16 03:36:00,
2013-11-15 22:51:00,45.5,31.0,30.18,SW,224,0.0,2.0,58,0.00,,,0.00,weatherlink.com 1.10,2013-11-16 03:51:00,
2013-11-15 23:06:00,45.7,32.0,30.19,SW,224,0.0,0.0,59,0.00,,,0.00,weatherlink.com 1.10,2013-11-16 04:06:00,
2013-11-15 23:21:00,45.5,33.0,30.19,SW,224,0.0,0.0,61,0.00,,,0.00,weatherlink.com 1.10,2013-11-16 04:21:00,
2013-11-15 23:36:00,45.2,34.0,30.19,West,271,0.0,2.0,64,0.00,,,0.00,weatherlink.com 1.10,2013-11-16 04:36:00,
2013-11-15 23:51:00,45.1,34.0,30.18,West,271,0.0,1.0,66,0.00,,,0.00,weatherlink.com 1.10,2013-11-16 04:51:00,